Time,TemperatureF,DewpointF,PressureIn,WindDirection,WindDirectionDegrees,WindSpeedMPH,WindSpeedGustMPH,Humidity,HourlyPrecipIn,Conditions,Clouds,dailyrainin,SolarRadiationWatts/m^2,SoftwareType,DateUTC
2013-07-25 00:01:00,73.4,66.0,30.05,North,355,0.0,-999.0,78,-99.99,,,0.01,0,weatherlink.com 1.10,2013-07-25 05:01:00,
2013-07-25 00:16:00,73.0,66.0,30.05,North,355,0.0,-999.0,78,-99.99,,,0.00,0,weatherlink.com 1.10,2013-07-25 05:16:00,
2013-07-25 00:31:00,72.7,65.0,30.06,North,355,0.0,-999.0,77,-99.99,,,0.00,0,weatherlink.com 1.10,2013-07-25 05:31:00,
2013-07-25 00:46:00,72.4,65.0,30.06,North,355,0.0,-999.0,77,-99.99,,,0.00,0,weatherlink.com 1.10,2013-07-25 05:46:00,
2013-07-25 01:31:00,71.3,64.0,30.07,North,355,0.0,-999.0,78,-99.99,,,0.00,0,weatherlink.com 1.10,2013-07-25 06:31:00,
2013-07-25 02:16:00,70.1,63.0,30.07,NNE,13,0.0,-999.0,77,-99.99,,,0.00,0,weatherlink.com 1.10,2013-07-25 07:16:00,
2013-07-25 02:31:00,69.8,62.0,30.07,NNE,13,0.0,-999.0,77,-99.99,,,0.00,0,weatherlink.com 1.10,2013-07-25 07:31:00,
2013-07-25 02:46:00,69.4,62.0,30.07,NNE,13,0.0,-999.0,78,-99.99,,,0.00,0,weatherlink.com 1.10,2013-07-25 07:46:00,
2013-07-25 03:01:00,69.0,62.0,30.07,NNE,13,0.0,-999.0,78,-99.99,,,0.00,0,weatherlink.com 1.10,2013-07-25 08:01:00,
2013-07-25 03:16:00,68.6,62.0,30.07,NNE,13,0.0,-999.0,80,-99.99,,,0.00,0,weatherlink.com 1.10,2013-07-25 08:16:00,
2013-07-25 03:31:00,68.1,62.0,30.07,NNE,13,0.0,-999.0,81,-99.99,,,0.00,0,weatherlink.com 1.10,2013-07-25 08:31:00,
2013-07-25 03:46:00,67.8,62.0,30.08,NNE,13,0.0,-999.0,82,-99.99,,,0.00,0,weatherlink.com 1.10,2013-07-25 08:46:00,
2013-07-25 04:01:00,67.5,62.0,30.08,NNE,13,0.0,-999.0,83,-99.99,,,0.00,0,weatherlink.com 1.10,2013-07-25 09:01:00,
2013-07-25 04:16:00,67.5,63.0,30.08,NNE,13,0.0,-999.0,84,-99.99,,,0.00,0,weatherlink.com 1.10,2013-07-25 09:16:00,
2013-07-25 04:31:00,67.4,62.0,30.09,NNE,13,0.0,-999.0,83,-99.99,,,0.00,0,weatherlink.com 1.10,2013-07-25 09:31:00,
2013-07-25 05:01:00,67.3,62.0,30.09,NNE,13,0.0,-999.0,84,-99.99,,,0.00,0,weatherlink.com 1.10,2013-07-25 10:01:00,
2013-07-25 05:16:00,67.2,64.0,30.09,NNE,13,0.0,-999.0,88,-99.99,,,0.00,0,weatherlink.com 1.10,2013-07-25 10:16:00,
2013-07-25 05:31:00,66.8,64.0,30.09,NNE,13,0.0,-999.0,90,-99.99,,,0.00,0,weatherlink.com 1.10,2013-07-25 10:31:00,
2013-07-25 05:46:00,66.3,64.0,30.09,NNE,13,0.0,-999.0,91,-99.99,,,0.00,0,weatherlink.com 1.10,2013-07-25 10:46:00,
2013-07-25 06:01:00,65.9,63.0,30.09,NNE,13,0.0,-999.0,90,-99.99,,,0.00,0,weatherlink.com 1.10,2013-07-25 11:01:00,
2013-07-25 06:16:00,65.6,63.0,30.09,NNE,13,0.0,-999.0,91,-99.99,,,0.00,5,weatherlink.com 1.10,2013-07-25 11:16:00,
2013-07-25 06:31:00,65.6,63.0,30.10,NNE,13,0.0,-999.0,91,-99.99,,,0.00,16,weatherlink.com 1.10,2013-07-25 11:31:00,
2013-07-25 06:47:00,65.4,63.0,30.10,North,5,0.0,-999.0,90,-99.99,,,0.00,19,weatherlink.com 1.10,2013-07-25 11:47:00,
2013-07-25 07:02:00,65.6,63.0,30.11,North,5,0.0,-999.0,91,-99.99,,,0.00,90,weatherlink.com 1.10,2013-07-25 12:02:00,
2013-07-25 07:17:00,66.5,63.0,30.11,North,5,0.0,-999.0,89,-99.99,,,0.00,120,weatherlink.com 1.10,2013-07-25 12:17:00,
2013-07-25 07:32:00,67.0,64.0,30.13,North,5,0.0,-999.0,90,-99.99,,,0.00,188,weatherlink.com 1.10,2013-07-25 12:32:00,
2013-07-25 07:47:00,67.5,63.0,30.13,North,5,0.0,-999.0,84,-99.99,,,0.00,149,weatherlink.com 1.10,2013-07-25 12:47:00,
2013-07-25 08:02:00,68.9,63.0,30.13,North,5,0.0,-999.0,80,-99.99,,,0.00,206,weatherlink.com 1.10,2013-07-25 13:02:00,
2013-07-25 08:17:00,69.2,62.0,30.14,North,5,0.0,-999.0,79,-99.99,,,0.00,311,weatherlink.com 1.10,2013-07-25 13:17:00,
2013-07-25 08:32:00,71.0,63.0,30.14,North,5,0.0,-999.0,76,-99.99,,,0.00,376,weatherlink.com 1.10,2013-07-25 13:32:00,
2013-07-25 08:47:00,72.8,63.0,30.13,North,5,0.0,-999.0,72,-99.99,,,0.00,376,weatherlink.com 1.10,2013-07-25 13:47:00,
2013-07-25 09:02:00,73.7,63.0,30.13,North,5,0.0,-999.0,70,-99.99,,,0.00,406,weatherlink.com 1.10,2013-07-25 14:02:00,
2013-07-25 09:17:00,74.7,63.0,30.13,North,5,0.0,-999.0,67,-99.99,,,0.00,445,weatherlink.com 1.10,2013-07-25 14:17:00,
2013-07-25 09:32:00,75.3,63.0,30.14,North,5,0.0,-999.0,65,-99.99,,,0.00,533,weatherlink.com 1.10,2013-07-25 14:32:00,
2013-07-25 09:47:00,74.1,63.0,30.14,North,5,2.0,-999.0,69,-99.99,,,0.00,536,weatherlink.com 1.10,2013-07-25 14:47:00,
2013-07-25 10:02:00,73.8,63.0,30.14,North,5,0.0,-999.0,69,-99.99,,,0.00,619,weatherlink.com 1.10,2013-07-25 15:02:00,
2013-07-25 10:17:00,74.2,64.0,30.14,North,5,0.0,-999.0,70,-99.99,,,0.00,670,weatherlink.com 1.10,2013-07-25 15:17:00,
2013-07-25 10:32:00,74.6,62.0,30.14,North,5,0.0,-999.0,66,-99.99,,,0.00,531,weatherlink.com 1.10,2013-07-25 15:32:00,
2013-07-25 10:47:00,74.8,62.0,30.15,North,5,0.0,-999.0,65,-99.99,,,0.00,691,weatherlink.com 1.10,2013-07-25 15:47:00,
2013-07-25 11:02:00,75.7,63.0,30.15,North,5,0.0,-999.0,65,-99.99,,,0.00,708,weatherlink.com 1.10,2013-07-25 16:02:00,
2013-07-25 11:17:00,76.0,62.0,30.15,North,5,0.0,-999.0,63,-99.99,,,0.00,756,weatherlink.com 1.10,2013-07-25 16:17:00,
2013-07-25 11:32:00,76.4,64.0,30.15,North,5,1.0,-999.0,66,-99.99,,,0.00,728,weatherlink.com 1.10,2013-07-25 16:32:00,
2013-07-25 11:47:00,76.3,63.0,30.14,North,5,5.0,-999.0,63,-99.99,,,0.00,726,weatherlink.com 1.10,2013-07-25 16:47:00,
2013-07-25 12:02:00,76.6,64.0,30.14,North,5,0.0,-999.0,66,-99.99,,,0.00,626,weatherlink.com 1.10,2013-07-25 17:02:00,
2013-07-25 12:17:00,77.5,65.0,30.14,North,5,0.0,-999.0,65,-99.99,,,0.00,812,weatherlink.com 1.10,2013-07-25 17:17:00,
2013-07-25 12:33:00,78.5,63.0,30.15,North,5,0.0,-999.0,60,-99.99,,,0.00,680,weatherlink.com 1.10,2013-07-25 17:33:00,
2013-07-25 12:48:00,79.3,64.0,30.14,North,5,0.0,-999.0,60,-99.99,,,0.00,703,weatherlink.com 1.10,2013-07-25 17:48:00,
2013-07-25 13:02:00,80.1,65.0,30.13,North,5,0.0,-999.0,61,-99.99,,,0.00,714,weatherlink.com 1.10,2013-07-25 18:02:00,
2013-07-25 13:18:00,80.5,64.0,30.13,North,5,0.0,-999.0,58,-99.99,,,0.00,621,weatherlink.com 1.10,2013-07-25 18:18:00,
2013-07-25 13:33:00,81.6,65.0,30.13,North,5,0.0,-999.0,58,-99.99,,,0.00,670,weatherlink.com 1.10,2013-07-25 18:33:00,
2013-07-25 13:48:00,81.9,65.0,30.13,North,5,0.0,-999.0,56,-99.99,,,0.00,645,weatherlink.com 1.10,2013-07-25 18:48:00,
2013-07-25 14:03:00,82.3,65.0,30.13,North,5,0.0,-999.0,57,-99.99,,,0.00,670,weatherlink.com 1.10,2013-07-25 19:03:00,
2013-07-25 14:18:00,82.0,66.0,30.13,North,5,0.0,-999.0,59,-99.99,,,0.00,587,weatherlink.com 1.10,2013-07-25 19:18:00,
2013-07-25 14:33:00,81.9,65.0,30.13,North,5,0.0,-999.0,56,-99.99,,,0.00,531,weatherlink.com 1.10,2013-07-25 19:33:00,
2013-07-25 14:48:00,82.2,65.0,30.13,North,5,0.0,-999.0,56,-99.99,,,0.00,907,weatherlink.com 1.10,2013-07-25 19:48:00,
2013-07-25 15:03:00,81.9,65.0,30.13,North,5,0.0,-999.0,57,-99.99,,,0.00,496,weatherlink.com 1.10,2013-07-25 20:03:00,
2013-07-25 15:18:00,82.1,64.0,30.13,North,5,0.0,-999.0,54,-99.99,,,0.00,721,weatherlink.com 1.10,2013-07-25 20:18:00,
2013-07-25 15:33:00,83.3,64.0,30.12,North,5,0.0,-999.0,52,-99.99,,,0.00,531,weatherlink.com 1.10,2013-07-25 20:33:00,
2013-07-25 15:48:00,83.4,66.0,30.12,North,5,0.0,-999.0,56,-99.99,,,0.00,311,weatherlink.com 1.10,2013-07-25 20:48:00,
2013-07-25 16:03:00,83.8,66.0,30.12,North,5,0.0,-999.0,55,-99.99,,,0.00,700,weatherlink.com 1.10,2013-07-25 21:03:00,
2013-07-25 16:18:00,82.9,66.0,30.12,North,5,0.0,-999.0,57,-99.99,,,0.00,517,weatherlink.com 1.10,2013-07-25 21:18:00,
2013-07-25 16:33:00,83.1,64.0,30.12,North,5,0.0,-999.0,53,-99.99,,,0.00,429,weatherlink.com 1.10,2013-07-25 21:33:00,
2013-07-25 16:48:00,83.2,65.0,30.12,North,5,0.0,-999.0,54,-99.99,,,0.00,740,weatherlink.com 1.10,2013-07-25 21:48:00,
2013-07-25 17:03:00,82.6,63.0,30.12,North,5,0.0,-999.0,52,-99.99,,,0.00,248,weatherlink.com 1.10,2013-07-25 22:03:00,
2013-07-25 17:18:00,82.6,64.0,30.11,North,5,0.0,-999.0,54,-99.99,,,0.00,408,weatherlink.com 1.10,2013-07-25 22:18:00,
2013-07-25 17:33:00,82.7,65.0,30.10,North,5,0.0,-999.0,55,-99.99,,,0.00,570,weatherlink.com 1.10,2013-07-25 22:33:00,
2013-07-25 17:48:00,83.5,63.0,30.10,North,5,0.0,-999.0,51,-99.99,,,0.00,415,weatherlink.com 1.10,2013-07-25 22:48:00,
2013-07-25 18:03:00,82.4,64.0,30.10,North,5,0.0,-999.0,54,-99.99,,,0.00,148,weatherlink.com 1.10,2013-07-25 23:03:00,
2013-07-25 18:18:00,81.7,63.0,30.10,North,5,0.0,-999.0,54,-99.99,,,0.00,139,weatherlink.com 1.10,2013-07-25 23:18:00,
2013-07-25 18:33:00,81.7,64.0,30.10,North,5,0.0,-999.0,55,-99.99,,,0.00,74,weatherlink.com 1.10,2013-07-25 23:33:00,
2013-07-25 18:48:00,81.7,64.0,30.09,North,5,0.0,-999.0,55,-99.99,,,0.00,69,weatherlink.com 1.10,2013-07-25 23:48:00,
2013-07-25 19:03:00,81.6,64.0,30.09,North,5,0.0,-999.0,55,-99.99,,,0.00,69,weatherlink.com 1.10,2013-07-26 00:03:00,
2013-07-25 19:18:00,81.6,64.0,30.09,North,5,0.0,-999.0,56,-99.99,,,0.00,91,weatherlink.com 1.10,2013-07-26 00:18:00,
2013-07-25 19:33:00,81.4,65.0,30.09,North,5,0.0,-999.0,58,-99.99,,,0.00,72,weatherlink.com 1.10,2013-07-26 00:33:00,
2013-07-25 19:48:00,80.6,64.0,30.08,North,5,0.0,-999.0,58,-99.99,,,0.00,42,weatherlink.com 1.10,2013-07-26 00:48:00,
2013-07-25 20:03:00,79.9,65.0,30.09,North,5,0.0,-999.0,60,-99.99,,,0.00,16,weatherlink.com 1.10,2013-07-26 01:03:00,
2013-07-25 20:18:00,78.6,64.0,30.08,North,5,0.0,-999.0,61,-99.99,,,0.00,0,weatherlink.com 1.10,2013-07-26 01:18:00,
2013-07-25 20:33:00,77.5,63.0,30.07,North,5,0.0,-999.0,62,-99.99,,,0.00,0,weatherlink.com 1.10,2013-07-26 01:33:00,
2013-07-25 20:48:00,76.4,63.0,30.08,North,5,0.0,-999.0,64,-99.99,,,0.00,0,weatherlink.com 1.10,2013-07-26 01:48:00,
2013-07-25 21:03:00,75.6,63.0,30.08,North,5,0.0,-999.0,66,-99.99,,,0.00,0,weatherlink.com 1.10,2013-07-26 02:03:00,
2013-07-25 21:18:00,75.2,64.0,30.08,North,5,0.0,-999.0,68,-99.99,,,0.00,0,weatherlink.com 1.10,2013-07-26 02:18:00,
2013-07-25 21:33:00,74.8,65.0,30.09,North,5,0.0,-999.0,71,-99.99,,,0.00,0,weatherlink.com 1.10,2013-07-26 02:33:00,
2013-07-25 21:48:00,74.2,65.0,30.09,North,5,0.0,-999.0,73,-99.99,,,0.00,0,weatherlink.com 1.10,2013-07-26 02:48:00,
2013-07-25 22:03:00,73.7,66.0,30.09,North,5,0.0,-999.0,76,-99.99,,,0.00,0,weatherlink.com 1.10,2013-07-26 03:03:00,
2013-07-25 22:18:00,73.4,65.0,30.10,North,5,0.0,-999.0,76,-99.99,,,0.00,0,weatherlink.com 1.10,2013-07-26 03:18:00,
2013-07-25 22:33:00,73.0,66.0,30.11,North,5,0.0,-999.0,78,-99.99,,,0.00,0,weatherlink.com 1.10,2013-07-26 03:33:00,
2013-07-25 22:48:00,72.6,65.0,30.11,North,5,0.0,-999.0,78,-99.99,,,0.00,0,weatherlink.com 1.10,2013-07-26 03:48:00,
2013-07-25 23:03:00,72.2,66.0,30.10,North,5,0.0,-999.0,80,-99.99,,,0.00,0,weatherlink.com 1.10,2013-07-26 04:03:00,
2013-07-25 23:18:00,71.7,65.0,30.10,North,5,0.0,-999.0,80,-99.99,,,0.00,0,weatherlink.com 1.10,2013-07-26 04:18:00,
2013-07-25 23:33:00,71.2,65.0,30.11,North,5,0.0,-999.0,81,-99.99,,,0.00,0,weatherlink.com 1.10,2013-07-26 04:33:00,
2013-07-25 23:48:00,71.0,65.0,30.11,North,5,0.0,-999.0,81,-99.99,,,0.00,0,weatherlink.com 1.10,2013-07-26 04:48:00,